Вернуться в каталог

COSMOS 1823 DEB

АктивенLEO
NORAD 18803·DEBRIS·🇷🇺 Russia

Запущен Feb 20, 1987 с Plesetsk Cosmodrome

Loading…

Ближайшие Пролёты (ближайшие 24 часа)

TLE

СвежийSource: Space-Track

Эпоха: Sep 14, 2026, 19:44 UTC

1 18803U 87020AP  26257.82238775 -.00000003  00000-0  12124-3 0  9998
2 18803  73.4465  95.7359 0085019 357.6296  16.3713 12.32030955741373

Отслеживайте COSMOS 1823 DEB в реальном времени с AllMySat

Download on the App Store